Lid_Strength_Index
0 0 0 -0 -0 -0 -0 0 0 0 0 -0 -0 -0 0 0 -0 -0 -0 -2 -2 -2 -2 -2 -2 -1 -1 -2 -2 -2 -2 -2 -1 -1 -1 -1 -1 -1 -1 -1 -1 -1 -1
0 0 0 0 0 -0 -0 -0 0 0 0 0 0 0 0 -0 -0 -0 -0 -1 -2 -2 -2 -2 -1 -2 -2 -2 -2 -2 -2 -2 -1 -1 -1 -1 -1 -1 -1 -1 -1 -1 -1
0 0 0 0 0 -0 -0 -0 0 0 0 0 1 0 0 0 0 -0 -0 -0 -0 -1 -1 -2 -2 -2 -1 -1 -2 -2 -2 -2 -2 -1 -1 -1 -1 -1 -1 -2 -1 -1 -1
-0 0 0 1 0 0 0 0 1 1 1 1 1 1 1 0 0 0 -0 -0 -0 -0 -1 -2 -2 -2 -1 -1 -2 -2 -2 -2 -2 -1 -1 -1 -1 -1 -1 -1 -1 -1 -2
-0 0 0 0 -0 0 0 1 1 1 2 1 1 1 1 1 0 -0 0 0 -0 -0 -0 -1 -2 -1 -2 -2 -2 -2 -1 -2 -2 -1 -1 -1 -1 -1 -2 -2 -1 -1 -2
0 0 0 0 0 1 1 1 1 1 1 1 1 2 1 1 0 1 0 0 -0 0 -0 -0 -0 -0 -2 -2 -2 -2 -1 -2 -2 -1 -1 -1 -1 -2 -1 -1 -1 -1 -1
0 0 1 1 0 1 1 1 1 2 2 1 2 2 2 1 1 1 1 1 0 0 0 -0 -0 0 -0 -1 -1 -1 -2 -1 -1 -1 -1 -1 -1 -1 -1 -1 -1 -1 -1
0 0 1 1 1 1 1 1 1 2 2 1 3 3 5 4 2 1 1 1 1 0 0 0 0 -0 -0 -0 -1 -1 -1 -2 -1 -1 -1 -1 -1 -1 -1 -1 -1 -1 -1
0 0 0 1 1 1 1 1 1 2 3 2 2 3 6 7 4 2 2 1 1 1 1 0 -0 -0 -1 0 -0 -1 -1 -1 -2 -1 -1 -1 -1 -1 -1 -1 -1 -1 -0
0 0 0 0 1 1 1 1 1 1 2 3 2 1 2 3 6 6 3 2 1 1 1 1 0 -0 0 1 1 1 -1 -1 -1 -1 -1 -1 -1 -1 -1 -1 -1 -1 -0
0 0 0 0 1 1 1 1 1 1 1 2 2 3 3 3 3 5 6 5 2 1 1 1 0 0 0 0 0 0 -1 -0 -0 -1 -1 -1 -1 -1 -1 -1 -1 -1 -1
1 1 0 1 1 1 1 1 1 1 1 1 2 2 3 4 4 4 5 5 5 3 1 1 1 0 -0 -0 -0 -1 -0 0 1 1 0 -0 -1 -1 -1 -1 -1 -1 -1
2 1 1 1 1 0 0 1 1 1 1 2 2 2 2 2 2 3 4 4 5 3 3 1 1 0 -0 -0 0 -1 -1 1 2 2 2 1 0 -0 -1 -1 -1 -1 -1
1 1 1 1 1 0 0 0 1 1 1 1 1 2 2 2 1 2 3 4 6 5 3 3 1 0 0 0 -1 -1 -0 1 2 2 3 2 1 0 0 -0 -1 -1 -1
1 1 1 1 1 1 0 0 1 1 1 1 1 1 2 1 1 1 2 2 4 7 6 3 3 0 -0 -0 -0 -0 -0 1 2 2 3 3 2 2 1 1 1 0 0
1 1 1 1 1 1 1 1 1 1 1 1 1 1 1 1 1 1 1 2 2 4 6 3 2 1 0 -0 -1 -0 0 1 2 2 3 3 3 2 2 2 1 1 1
1 1 1 1 1 1 1 1 1 1 1 1 1 1 2 1 2 1 1 1 2 3 4 3 2 1 1 1 0 1 -0 1 2 2 3 4 4 3 3 3 2 2 1
1 1 1 1 1 1 1 1 1 1 2 2 2 2 2 1 2 1 1 2 2 2 3 4 2 2 1 1 0 0 0 0 1 3 4 4 4 4 4 4 3 3 3
1 1 1 1 1 1 1 1 1 1 1 1 1 1 2 1 2 2 2 2 2 2 2 3 3 2 1 1 1 1 2 2 2 3 4 4 4 4 4 4 4 4 4
1 1 1 1 1 1 1 1 1 1 1 1 1 1 1 1 2 2 2 2 2 2 2 3 3 3 2 2 1 2 3 2 3 2 3 3 4 4 5 4 4 4 5
1 1 1 1 1 1 1 1 1 1 1 2 1 1 1 1 2 1 1 2 2 2 3 3 3 3 3 3 3 3 4 4 3 2 3 2 2 2 3 3 3 3 5
1 1 1 1 1 2 9 7 3 1 1 1 2 1 1 3 4 5 4 3 2 2 3 3 3 4 4 3 3 3 4 5 5 2 3 3 2 2 2 2 4 6 7
1 1 1 1 1 2 8 7 6 1 1 1 2 1 1 1 1 1 6 5 5 5 3 1 3 3 3 3 3 4 3 3 4 3 3 4 2 3 3 4 6 7 8
2 2 2 1 1 3 8 7 5 1 1 1 1 1 1 1 1 1 1 1 1 1 1 1 1 2 2 2 2 2 3 3 3 3 3 5 3 4 5 4 7 7 7
1 1 1 1 2 2 8 7 3 1 1 1 2 2 1 1 7 7 1 2 3 4 7 7 6 7 8 7 4 2 4 4 5 4 4 5 5 5 4 4 6 6 6
1 1 2 1 4 1 8 7 4 2 3 3 1 2 8 4 8 7 1 2 3 3 2 3 4 6 5 6 6 3 3 4 5 5 4 5 4 4 5 3 3 5 5